Regional Weather Roundup
Issued by NWS

Home | Current Version | Previous Version | Graphics & Text | Print | Product List | Glossary On
Versions: 1 2 3 4 5 6 7 8 9 10 11 12 13 14 15 16 17 18 19 20 21 22 23 24 25 26 27 28 29 30 31 32 33 34 35 36 37 38 39 40 41 42 43 44 45 46 47 48 49 50
000
ASUS43 KIND 212359
RWRIN

WEATHER ROUNDUP FOR INDIANA
NATIONAL WEATHER SERVICE INDIANAPOLIS IN
800 PM EDT MON JUL 21 2014

NOTE: "FAIR" INDICATES FEW OR NO CLOUDS BELOW 12,000 FEET WITH NO
SIGNIFICANT WEATHER AND/OR OBSTRUCTIONS TO VISIBILITY.

* - STATION DOES NOT REPORT WEATHER SUCH AS PRECIPITATION OR FOG.

+ - STATION NOT QUALITY CONTROLLED BY THE NATIONAL WEATHER SERVICE.
    USE DATA WITH CAUTION...ESPECIALLY DEWPOINT AND RELATIVE
    HUMIDITY OBSERVATIONS.

INZ001>003-010>013-019-020-220100-
NORTHWEST INDIANA

CITY           SKY/WX    TMP DP  RH WIND       PRES   REMARKS
GARY /AIRPORT/ MOSUNNY   82  63  51 S7        30.07S
VALPARAISO     SUNNY     81  64  56 S6        30.09S
6HR MIN TEMP:  80; 6HR MAX TEMP:  83;


$$

LMZ046-743>745-220100-
SOUTHERN LAKE MICHIGAN

STATION/POSITION TIME  TEMP WIND        PRES
                       AIR  DIR/SP/G
                 (UTC) (F)  (DEG/KT/KT) (MB)
MICHIGAN CITY    2300   74   40/  8/  9   N/A

$$

INZ004-005-014>016-021>024-220100-
NORTH CENTRAL INDIANA

CITY           SKY/WX    TMP DP  RH WIND       PRES   REMARKS
GOSHEN         SUNNY     83  62  49 CALM      30.09S
6HR MIN TEMP:  81; 6HR MAX TEMP:  87;

SOUTH BEND     SUNNY     83  62  49 S7        30.09S
6HR MIN TEMP:  82; 6HR MAX TEMP:  85;

WARSAW +       MOSUNNY   81  63  54 CALM      30.09S

$$

INZ006>009-017-018-025>027-220100-
NORTHEAST INDIANA

CITY           SKY/WX    TMP DP  RH WIND       PRES   REMARKS
ANGOLA *+      SUNNY     84  63  48 CALM      30.10F
FORT WAYNE     MOSUNNY   82  61  48 SE5       30.10S
6HR MIN TEMP:  82; 6HR MAX TEMP:  87;


$$

INZ028-029-035-036-043>045-051>053-220100-
WEST CENTRAL INDIANA

CITY           SKY/WX    TMP DP  RH WIND       PRES   REMARKS
GREENCASTLE +  SUNNY     77  64  65 CALM      30.10S
LAFAYETTE      SUNNY     80  65  59 CALM      30.08S
6HR MIN TEMP:  80; 6HR MAX TEMP:  83;

TERRE HAUTE    SUNNY     81  66  60 CALM      30.08S
6HR MIN TEMP:  81; 6HR MAX TEMP:  85;


$$

INZ030>032-037>040-046>048-054>057-064-065-220100-
CENTRAL INDIANA

CITY           SKY/WX    TMP DP  RH WIND       PRES   REMARKS
COLUMBUS       MOSUNNY   82  64  54 CALM      30.08S
INDIANAPOLIS   MOSUNNY   82  62  50 SW6       30.09R
6HR MIN TEMP:  81; 6HR MAX TEMP:  85;

-EAGLE CREEK   PTSUNNY   82  63  52 NW6       30.08S
6HR MIN TEMP:  81; 6HR MAX TEMP:  85;

KOKOMO *+      SUNNY     79  68  69 SE3       30.10R
MT COMFORT *+  SUNNY     81  70  69 E5        30.10S
SHELBYVILLE    SUNNY     83  65  54 SE3       30.09S
6HR MIN TEMP:  83; 6HR MAX TEMP:  88;


$$

INZ033-034-041-042-049-050-058-059-220100-
EAST CENTRAL INDIANA

CITY           SKY/WX    TMP DP  RH WIND       PRES   REMARKS
MUNCIE         SUNNY     79  61  53 SE5       30.10S
6HR MIN TEMP:  79; 6HR MAX TEMP:  84;


$$

INZ060-061-067>069-081>083-085>088-220100-
SOUTHWEST INDIANA

CITY           SKY/WX    TMP DP  RH WIND       PRES   REMARKS
EVANSVILLE     SUNNY     86  66  51 CALM      30.06S
6HR MIN TEMP:  83; 6HR MAX TEMP:  89;

HUNTINGBURG *+ SUNNY     84  66  54 NE3       30.07S
6HR MIN TEMP:  84; 6HR MAX TEMP:  88;


$$

INZ062-063-066-070>080-084-089>092-220100-
SOUTH CENTRAL AND SOUTHEAST INDIANA

CITY           SKY/WX    TMP DP  RH WIND       PRES   REMARKS
BLOOMINGTON    SUNNY     82  65  56 NW3       30.09S
6HR MIN TEMP:  82; 6HR MAX TEMP:  86;


$$



USA.gov is the U.S. government's official web portal to all federal, state and local government web resources and services.